Weather in Spielberg

Austria     47°12′31″N   14°48′00″E
temp.,
°C
wind,
m/s
gust,
m/s
humid.,
%
clouds,
%
prec.,
mm/h
press.,
hPa
HPBL,
m
26 july, mon
mon2623:00+14wnw22865 0.1 101235
02:00+13wnw22911 0.1 101336
05:00+13nw2290100 0.1 101418
08:00+18n007316 0.3 1014187
11:00+23sse245230 0.1 10131546
14:00+25s364232 0.3 10112370
17:00+23ssw474987 0.0 10111750
20:00+18wsw2377100 0.1 101350
27 july, tue
tue2723:00+15wnw3388100 0.0 101458
02:00+13nw229612 0.0 101634
05:00+12nw229899 0.0 101737
08:00+16nnw1190100 0.6 1018237
11:00+19s1279100 1.2 1017737
14:00+23se145679 3.0 10151691
17:00+23se155644 1.2 10141516
20:00+18s117746 1.4 101515
28 july, wed
wed2823:00+14w228799 0.0 101724
02:00+13wnw229079 0.0 101726
05:00+12nw219384 0.0 101719
08:00+17sw117929 0.0 1016201
11:00+24ssw29465 0.0 10131870
14:00+26ssw51039100 0.0 10132468
17:00+26sw46395 0.0 10122332
20:00+18nnw35826 0.2 1015252
29 july, thu
thu2923:00+13nw23975 0.0 101854
02:00+12nw21950 0.0 101919
05:00+12wnw11900 0.0 101811
08:00+17ssw01720 0.0 1018178
11:00+23se235654 0.1 10161405
14:00+23e126413 1.2 1015732
17:00+21nne2373100 1.3 1014316
20:00+18nnw118434 1.4 101411
30 july, fri
fri3023:00+15wnw11893 0.0 101411
02:00+14w22900 0.0 101322
05:00+14w229011 0.0 101235
08:00+17nnw2383100 0.0 1014369
11:00+20nw1272100 0.6 1013574
14:00+17e1185100 2.3 101327
17:00+20wsw2266100 0.1 1011443
20:00+16nne1188100 0.6 101213